Meteo orario Godzieszowek

Oggi, 19 Aprile, Lunedi

Tempo Temperatura Precipitazioni Vento Pressione Umidità
00:00 +5°C° 0 mm 1 m/s 743 mm Hg 91%
01:00 +4°C° 0 mm 0 m/s 743 mm Hg 91%
02:00 +6°C° 0 mm 1 m/s 743 mm Hg 89%
03:00 +6°C° 0 mm 1 m/s 742 mm Hg 88%
04:00 +6°C° 0 mm 1 m/s 742 mm Hg 86%
05:00 +7°C° 0 mm 1 m/s 742 mm Hg 85%
06:00 +7°C° 0 mm 1 m/s 742 mm Hg 84%
07:00 +8°C° 0 mm 1 m/s 742 mm Hg 83%
08:00 +8°C° 0.2 mm 1 m/s 742 mm Hg 84%
09:00 +7°C° 0.2 mm 2 m/s 742 mm Hg 85%
10:00 +7°C° 0.2 mm 2 m/s 742 mm Hg 87%
11:00 +7°C° 0.4 mm 2 m/s 742 mm Hg 86%
12:00 +8°C° 0.4 mm 2 m/s 742 mm Hg 85%
13:00 +8°C° 0.4 mm 3 m/s 742 mm Hg 85%
14:00 +9°C° 0.1 mm 2 m/s 741 mm Hg 83%
15:00 +9°C° 0.1 mm 2 m/s 741 mm Hg 81%
16:00 +10°C° 0.1 mm 2 m/s 741 mm Hg 80%
17:00 +9°C° 0.1 mm 2 m/s 741 mm Hg 83%
18:00 +9°C° 0.1 mm 1 m/s 741 mm Hg 87%
19:00 +8°C° 0.1 mm 1 m/s 740 mm Hg 90%
20:00 +8°C° 0 mm 1 m/s 740 mm Hg 90%
21:00 +8°C° 0 mm 1 m/s 740 mm Hg 91%
22:00 +8°C° 0 mm 1 m/s 741 mm Hg 91%
23:00 +7°C° 0 mm 1 m/s 740 mm Hg 91%

Domani, 20 Aprile, Martedi

Tempo Temperatura Precipitazioni Vento Pressione Umidità
00:00 +6°C° 0 mm 0 m/s 740 mm Hg 91%
01:00 +6°C° 0 mm 0 m/s 740 mm Hg 91%
02:00 +6°C° 0 mm 0 m/s 740 mm Hg 91%
03:00 +7°C° 0 mm 0 m/s 740 mm Hg 91%
04:00 +7°C° 0 mm 0 m/s 740 mm Hg 91%
05:00 +7°C° 0.1 mm 0 m/s 740 mm Hg 87%
06:00 +9°C° 0.1 mm 1 m/s 740 mm Hg 83%
07:00 +10°C° 0.1 mm 1 m/s 741 mm Hg 79%
08:00 +11°C° 0.1 mm 1 m/s 741 mm Hg 71%
09:00 +12°C° 0.1 mm 2 m/s 741 mm Hg 63%
10:00 +13°C° 0.1 mm 2 m/s 740 mm Hg 56%
11:00 +13°C° 0.1 mm 2 m/s 740 mm Hg 55%
12:00 +14°C° 0.1 mm 2 m/s 740 mm Hg 54%
13:00 +14°C° 0.1 mm 2 m/s 740 mm Hg 53%
14:00 +14°C° 0.1 mm 2 m/s 740 mm Hg 55%
15:00 +14°C° 0.1 mm 2 m/s 739 mm Hg 58%
16:00 +14°C° 0.1 mm 2 m/s 739 mm Hg 60%
17:00 +12°C° 0.1 mm 2 m/s 739 mm Hg 66%
18:00 +11°C° 0.1 mm 1 m/s 739 mm Hg 73%
19:00 +9°C° 0.1 mm 1 m/s 739 mm Hg 79%
20:00 +9°C° 0.1 mm 1 m/s 739 mm Hg 81%
21:00 +8°C° 0.1 mm 1 m/s 739 mm Hg 83%
22:00 +8°C° 0.1 mm 1 m/s 739 mm Hg 85%
23:00 +8°C° 0 mm 1 m/s 739 mm Hg 84%

Dopodomani, 21 Aprile, Mercoledi

Tempo Temperatura Precipitazioni Vento Pressione Umidità
00:00 +7°C° 0 mm 1 m/s 739 mm Hg 84%
01:00 +7°C° 0 mm 1 m/s 739 mm Hg 83%
02:00 +7°C° 0 mm 1 m/s 739 mm Hg 83%
03:00 +6°C° 0 mm 2 m/s 739 mm Hg 82%
04:00 +5°C° 0 mm 2 m/s 739 mm Hg 82%
05:00 +6°C° 0 mm 2 m/s 739 mm Hg 79%
06:00 +7°C° 0 mm 2 m/s 739 mm Hg 77%
07:00 +9°C° 0 mm 2 m/s 739 mm Hg 75%
08:00 +9°C° 0.1 mm 3 m/s 739 mm Hg 75%
09:00 +10°C° 0.1 mm 3 m/s 739 mm Hg 76%
10:00 +11°C° 0.1 mm 4 m/s 739 mm Hg 76%
11:00 +12°C° 0.3 mm 5 m/s 739 mm Hg 70%
12:00 +13°C° 0.3 mm 5 m/s 738 mm Hg 64%
13:00 +13°C° 0.3 mm 5 m/s 738 mm Hg 58%
14:00 +13°C° 0 mm 5 m/s 738 mm Hg 57%
15:00 +13°C° 0 mm 5 m/s 738 mm Hg 56%
16:00 +13°C° 0 mm 5 m/s 738 mm Hg 54%
17:00 +12°C° 0 mm 4 m/s 738 mm Hg 58%
18:00 +10°C° 0 mm 4 m/s 738 mm Hg 63%
19:00 +9°C° 0 mm 3 m/s 738 mm Hg 67%
20:00 +8°C° 0 mm 3 m/s 739 mm Hg 74%
21:00 +8°C° 0 mm 3 m/s 739 mm Hg 81%
22:00 +7°C° 0 mm 2 m/s 739 mm Hg 88%
23:00 +7°C° 0.1 mm 3 m/s 739 mm Hg 88%

22 Aprile, Giovedi

Tempo Temperatura Precipitazioni Vento Pressione Umidità
00:00 +5°C° 0.1 mm 3 m/s 740 mm Hg 88%
01:00 +5°C° 0.1 mm 4 m/s 740 mm Hg 87%
02:00 +4°C° 0 mm 4 m/s 740 mm Hg 86%
03:00 +3°C° 0 mm 4 m/s 740 mm Hg 85%
04:00 +1°C° 0 mm 4 m/s 740 mm Hg 84%
05:00 +1°C° 0 mm 4 m/s 740 mm Hg 79%
06:00 +1°C° 0 mm 4 m/s 740 mm Hg 74%
07:00 +1°C° 0 mm 5 m/s 741 mm Hg 69%
08:00 +2°C° 0 mm 5 m/s 741 mm Hg 62%
09:00 +3°C° 0 mm 5 m/s 741 mm Hg 56%
10:00 +4°C° 0 mm 6 m/s 741 mm Hg 49%
11:00 +5°C° 0 mm 6 m/s 741 mm Hg 48%
12:00 +7°C° 0 mm 6 m/s 740 mm Hg 47%
13:00 +6°C° 0 mm 7 m/s 740 mm Hg 47%
14:00 +6°C° 0 mm 7 m/s 740 mm Hg 50%
15:00 +7°C° 0 mm 6 m/s 741 mm Hg 54%
16:00 +5°C° 0 mm 6 m/s 741 mm Hg 57%
17:00 +4°C° 0 mm 6 m/s 741 mm Hg 62%
18:00 +3°C° 0 mm 5 m/s 741 mm Hg 68%
19:00 +3°C° 0 mm 4 m/s 741 mm Hg 73%
20:00 +3°C° 0 mm 4 m/s 741 mm Hg 75%
21:00 +1°C° 0 mm 4 m/s 742 mm Hg 76%
22:00 +1°C° 0 mm 5 m/s 742 mm Hg 77%
23:00 +1°C° 0 mm 5 m/s 742 mm Hg 78%

23 Aprile, Venerdi

Tempo Temperatura Precipitazioni Vento Pressione Umidità
00:00 0°C° 0 mm 5 m/s 742 mm Hg 79%
01:00 0°C° 0 mm 5 m/s 743 mm Hg 79%
02:00 0°C° 0 mm 5 m/s 743 mm Hg 81%
03:00 0°C° 0 mm 4 m/s 743 mm Hg 82%
04:00 -1°C° 0 mm 4 m/s 743 mm Hg 84%
05:00 0°C° 0 mm 5 m/s 744 mm Hg 81%
06:00 +1°C° 0 mm 5 m/s 744 mm Hg 77%
07:00 +2°C° 0 mm 5 m/s 744 mm Hg 74%
08:00 +3°C° 0 mm 5 m/s 745 mm Hg 68%
09:00 +5°C° 0 mm 5 m/s 745 mm Hg 62%
10:00 +7°C° 0 mm 5 m/s 745 mm Hg 56%
11:00 +7°C° 0 mm 5 m/s 745 mm Hg 53%
12:00 +8°C° 0 mm 5 m/s 745 mm Hg 50%
13:00 +8°C° 0 mm 5 m/s 745 mm Hg 48%
14:00 +8°C° 0 mm 5 m/s 745 mm Hg 48%
15:00 +9°C° 0 mm 5 m/s 745 mm Hg 48%
16:00 +9°C° 0 mm 5 m/s 745 mm Hg 48%
17:00 +7°C° 0 mm 4 m/s 745 mm Hg 56%
18:00 +6°C° 0 mm 4 m/s 745 mm Hg 65%
19:00 +4°C° 0 mm 4 m/s 745 mm Hg 73%
20:00 +4°C° 0 mm 3 m/s 745 mm Hg 76%
21:00 +3°C° 0 mm 3 m/s 745 mm Hg 79%
22:00 +2°C° 0 mm 3 m/s 745 mm Hg 82%
23:00 +2°C° 0 mm 3 m/s 745 mm Hg 82%

24 Aprile, Sabato

Tempo Temperatura Precipitazioni Vento Pressione Umidità
00:00 +2°C° 0 mm 3 m/s 745 mm Hg 81%
01:00 +2°C° 0 mm 3 m/s 744 mm Hg 80%
02:00 +2°C° 0 mm 3 m/s 744 mm Hg 81%
03:00 +2°C° 0 mm 3 m/s 744 mm Hg 82%
04:00 +2°C° 0 mm 3 m/s 744 mm Hg 83%
05:00 +3°C° 0 mm 3 m/s 744 mm Hg 79%
06:00 +4°C° 0 mm 4 m/s 744 mm Hg 76%
07:00 +5°C° 0 mm 4 m/s 744 mm Hg 73%
08:00 +6°C° 0 mm 5 m/s 744 mm Hg 66%
09:00 +7°C° 0 mm 5 m/s 744 mm Hg 59%
10:00 +9°C° 0 mm 5 m/s 744 mm Hg 52%
11:00 +9°C° 0 mm 6 m/s 743 mm Hg 52%
12:00 +9°C° 0 mm 6 m/s 743 mm Hg 53%
13:00 +9°C° 0 mm 6 m/s 743 mm Hg 53%
14:00 +9°C° 0 mm 5 m/s 743 mm Hg 58%
15:00 +8°C° 0 mm 5 m/s 743 mm Hg 62%
16:00 +7°C° 0 mm 5 m/s 744 mm Hg 66%
17:00 +6°C° 0 mm 4 m/s 744 mm Hg 73%
18:00 +5°C° 0 mm 3 m/s 744 mm Hg 80%
19:00 +4°C° 0 mm 3 m/s 744 mm Hg 86%
20:00 +4°C° 0 mm 2 m/s 745 mm Hg 88%
21:00 +3°C° 0 mm 2 m/s 745 mm Hg 90%
22:00 +2°C° 0 mm 2 m/s 746 mm Hg 91%
23:00 +2°C° 0 mm 2 m/s 746 mm Hg 91%
Mostrare altro

Abbiamo bisogno del tuo consenso

Meteoprog e i nostri fornitori di servizi possono memorizzare e accedere a dati personali come cookie, identificatori di dispositivi o altre tecnologie simili sul tuo dispositivo e possono elaborare tali dati per personalizzare i contenuti e gli annunci, nonché fornire funzionalità dei social media e analizzarne il traffico.

  • Archiviare e/o accedere alle informazioni sul tuo dispositivo

    Cookie, identificatori di dispositivi o altre informazioni possono essere memorizzati o resi accessibili sul tuo dispositivo per le finalità sopra indicate.

  • Annunci e contenuti personalizzati, misurazione di annunci e contenuti, approfondimenti sul pubblico e sviluppo di prodotti

    Gli annunci e i contenuti possono essere personalizzati in base a un profilo. È possibile aggiungere più dati per personalizzare meglio annunci e contenuti. È possibile misurare il rendimento degli annunci e dei contenuti. È possibile ricavare informazioni sul pubblico che ha visto gli annunci e i contenuti. Tali dati possono essere utilizzati per sviluppare o migliorare l'esperienza, i sistemi e il software dell'utente.

Cliccando su “Accetto”, acconsenti all'uso di cookie, identificatori di dispositivo, web beacon o altre tecnologie simili. Puoi modificare le impostazioni nel browser del tuo dispositivo.

Per determinati scopi, è possibile fare affidamento su interessi legali, piuttosto che sul consenso. Puoi approfondire questo argomento consultando la nostra Informativa sulla privacy e sui cookie.